Regional Weather Roundup
Issued by NWS Cleveland, OH

Home | Current Version | Previous Version | Graphics & Text | Print | Product List | Glossary On
Versions: 1 2 3 4 5 6 7 8 9 10 11 12 13 14 15 16 17 18 19 20 21 22 23 24 25 26 27 28 29 30 31 32 33 34 35 36 37 38 39 40 41 42 43 44 45 46 47 48 49 50
000
ASUS41 KCLE 240702
RWRCLE
OHIO REGIONAL WEATHER ROUNDUP
NATIONAL WEATHER SERVICE CLEVELAND, OH
300 AM EDT THU APR 24 2014

NOTE: "FAIR" INDICATES FEW OR NO CLOUDS BELOW 12,000 FEET WITH NO
SIGNIFICANT WEATHER AND/OR OBSTRUCTIONS TO VISIBILITY.

OHZ001>008-015>018-024>027-034-035-043-044-240800-
   NORTHWEST OHIO

CITY           SKY/WX    TMP DP  RH WIND       PRES   REMARKS
DEFIANCE       CLOUDY    48  31  51 SE8       30.10S
FINDLAY        CLOUDY    45  31  58 SE6       30.09S
TOLEDO EXPRESS CLOUDY    45  30  55 SE3       30.10S
TOLEDO EXEC    MOCLDY    45  30  55 SE6       30.11S
LIMA           CLOUDY    46  32  58 SE12      30.09S
$$

OHZ009>014-019>023-028>033-038-089-240800-
   NORTHEAST OHIO

CITY           SKY/WX    TMP DP  RH WIND       PRES   REMARKS
CLE-HOPKINS    MOCLDY    39  21  48 N3        30.14F
CLE-LAKEFRONT  MOCLDY    40  20  44 E6        30.10F
CUY CO. ARPT   NOT AVBL
LORAIN-ELYRIA  PTCLDY    37  29  72 CALM      30.11F
ASHTABULA      CLEAR     28  20  71 CALM      30.11F
AKRON-CANTON   CLEAR     35  25  66 CALM      30.10S
WOOSTER        CLEAR     30  26  85 CALM      30.11S
MANSFIELD      PTCLDY    38  27  64 SE3       30.09F
YOUNGSTOWN     PTCLDY    32  18  56 N7        30.08F WCI  26
$$

OHZ042-051>053-060>062-070>072-077>081-240800-
  SOUTHWEST OHIO

CITY           SKY/WX    TMP DP  RH WIND       PRES   REMARKS
CINC-COVINGTON CLOUDY    51  34  52 E10       30.05F
CINC-LUNKEN    CLOUDY    49  35  58 NE9       30.07F
HAMILTON       CLOUDY    50  35  56 E7        30.08S
DAYTON         CLOUDY    47  31  53 SE10      30.08F
WRIGHT-PAT AFB CLOUDY    47  32  56 E7        30.08F
DAYTON GENERAL CLOUDY    47  33  58 E9        30.06F
WILMINGTON     CLOUDY    44  33  65 E8        30.07F
$$

OHZ036-037-039>041-045>050-054>059-063>069-073>076-082>088-240800-
  CENTRAL AND SOUTHEAST OHIO

CITY           SKY/WX    TMP DP  RH WIND       PRES   REMARKS
COLUMBUS       CLOUDY    45  28  51 CALM      30.10F
OSU AIRPORT    CLOUDY    42  30  62 E5        30.10F
BOLTON FIELD   CLOUDY    43  32  65 E3        30.10S
RICKENBACK AFB NOT AVBL
NEWARK         CLEAR     40  29  64 NE3       30.10F
MARION         CLOUDY    41  29  62 SE7       30.10S
LANCASTER      CLOUDY    42  30  62 CALM      30.10F
ZANESVILLE     CLEAR     37  28  70 CALM      30.10F
NEW PHILLY     CLEAR     30  25  81 CALM      30.11F
$$



USA.gov is the U.S. government's official web portal to all federal, state and local government web resources and services.